User: anonymous   Login
Location: Unspecified
(0.0000°N, 0.0000°E)
Time: 19:25:21
(UTC+01:00)
Language:

Cosmos 1733 Rocket - Orbit

View from above orbital plane
View from above orbital plane
View from above satellite
View from above satellite

Ground track
Ground track

The orbit data is extracted from the following two-line orbital elements,

1 16612U 86018B   14355.81517692  .00000888  00000-0  10432-3 0  1018
2 16612 082.5172 068.5212 0016348 269.1316 230.1229 14.83758738456735
Epoch (UTC): 21 December 2014 19:33:51
Eccentricity: 0.0016348
inclination: 82.5172°
perigee height: 606 km
apogee height: 629 km
right ascension of ascending node: 68.5212°
argument of perigee: 269.1316°
revolutions per day: 14.83758738
mean anomaly at epoch: 230.1229°
orbit number at epoch: 45673

The dashed part of the orbit path shows where the satellite is in the earth's shadow,  

DLR